Location: Beuerbach
(48.1459°N, 10.9174°E)
Time: 02:06:51
(UTC+00:00)

Cosmos 1782 Rocket - Pass Details

Date: 23 May 2024
Orbit: 602 x 629 km, 82.5° (Epoch: 19 June)

Event Time Altitude Azimuth Distance (km) Brightness Sun altitude
Rises 01:50:58 0° 341° (NNW) 2,898 7.5 -12.7°
Reaches altitude 10° 01:53:24 10° 332° (NNW) 1,983 6.5 -12.4°
Maximum altitude 01:57:15 31° 270° (W) 1,080 4.5 -12.0°
Enters shadow 01:59:49 17° 219° (SW) 1,539 4.9 -11.8°
